| time (UTC) | temp F | wind direction | speed knots | gust knots | rain 1hr in | rain 24hr in | rain mn in | humidity % | barometer mb |
| 20260506024402 | 29 | 345 | 0.0 | 1.7 | 0.00 | 0.25 | 0.17 | 96 | 977.8 |
| 20260506023902 | 29 | 295 | 0.0 | 1.7 | 0.00 | 0.25 | 0.17 | 96 | 977.6 |
| 20260506023402 | 29 | 315 | 0.0 | 1.7 | 0.00 | 0.25 | 0.17 | 96 | 977.5 |
| 20260506022902 | 29 | 352 | 0.0 | 1.7 | 0.00 | 0.25 | 0.17 | 96 | 977.3 |
| 20260506022401 | 29 | 306 | 0.0 | 0.9 | 0.00 | 0.25 | 0.17 | 96 | 977.2 |
| 20260506021904 | 29 | 2 | 0.0 | 0.9 | 0.00 | 0.25 | 0.17 | 96 | 977.2 |
| 20260506021406 | 29 | 217 | 0.0 | 1.7 | 0.00 | 0.25 | 0.17 | 96 | 976.9 |
| 20260506021401 | 29 | 5 | 0.0 | 1.7 | 0.00 | 0.25 | 0.17 | 96 | 977.0 |
| 20260506020401 | 29 | 314 | 0.0 | 1.7 | 0.00 | 0.25 | 0.17 | 96 | 976.9 |
| 20260506015900 | 29 | 290 | 0.0 | 1.7 | 0.00 | 0.25 | 0.17 | 96 | 976.9 |
| 20260506015400 | 29 | 311 | 0.0 | 1.7 | 0.00 | 0.25 | 0.17 | 96 | 976.9 |
| 20260506014900 | 29 | 339 | 0.9 | 2.6 | 0.00 | 0.25 | 0.17 | 96 | 976.9 |
| 20260506014400 | 29 | 321 | 0.9 | 3.5 | 0.00 | 0.25 | 0.17 | 96 | 976.9 |
| 20260506013900 | 29 | 319 | 0.9 | 3.5 | 0.00 | 0.25 | 0.17 | 96 | 976.9 |
| 20260506013400 | 30 | 6 | 0.9 | 2.6 | 0.00 | 0.25 | 0.17 | 96 | 976.7 |
| 20260506012900 | 30 | 11 | 0.0 | 2.6 | 0.00 | 0.25 | 0.17 | 96 | 976.5 |
| 20260506012405 | 30 | 301 | 0.9 | 3.5 | 0.00 | 0.25 | 0.17 | 96 | 976.6 |
| 20260506012359 | 30 | 296 | 0.0 | 4.3 | 0.00 | 0.25 | 0.17 | 96 | 976.5 |
| 20260506011859 | 30 | 299 | 0.9 | 4.3 | 0.00 | 0.25 | 0.17 | 96 | 976.6 |
| 20260506010859 | 30 | 341 | 0.9 | 3.5 | 0.00 | 0.25 | 0.17 | 96 | 976.5 |
| 20260506010359 | 30 | 307 | 0.9 | 3.5 | 0.00 | 0.25 | 0.17 | 96 | 976.5 |
| 20260506005859 | 30 | 306 | 0.9 | 2.6 | 0.00 | 0.25 | 0.17 | 96 | 976.3 |
| 20260506005357 | 30 | 322 | 0.9 | 2.6 | 0.00 | 0.25 | 0.17 | 96 | 976.3 |
| 20260506004903 | 31 | 312 | 0.9 | 3.5 | 0.00 | 0.25 | 0.17 | 96 | 976.3 |
| 20260506004857 | 31 | 296 | 0.9 | 2.6 | 0.00 | 0.25 | 0.17 | 96 | 976.5 |
| 20260506004358 | 31 | 347 | 0.9 | 2.6 | 0.00 | 0.25 | 0.17 | 96 | 976.3 |
| 20260506003358 | 31 | 353 | 0.0 | 3.5 | 0.00 | 0.25 | 0.17 | 96 | 976.3 |
| 20260506002859 | 31 | 334 | 0.0 | 2.6 | 0.01 | 0.25 | 0.17 | 96 | 976.3 |
| 20260506002402 | 31 | 302 | 0.9 | 3.5 | 0.01 | 0.25 | 0.17 | 96 | 976.2 |
| 20260506002358 | 31 | 288 | 0.9 | 2.6 | 0.01 | 0.25 | 0.17 | 96 | 976.2 |
| 20260506001358 | 32 | 222 | 0.9 | 3.5 | 0.01 | 0.25 | 0.17 | 96 | 976.2 |
| 20260506000858 | 32 | 319 | 0.0 | 1.7 | 0.01 | 0.25 | 0.17 | 97 | 976.1 |
| 20260506000401 | 32 | 294 | 0.0 | 1.7 | 0.01 | 0.25 | 0.17 | 97 | 976.0 |
| 20260505235858 | 32 | 18 | 0.0 | 1.7 | 0.01 | 0.25 | 0.17 | 97 | 976.0 |
| 20260505235402 | 32 | 346 | 0.0 | 0.9 | 0.01 | 0.25 | 0.17 | 96 | 975.9 |
| 20260505235358 | 32 | 339 | 0.0 | 1.7 | 0.01 | 0.25 | 0.17 | 96 | 975.9 |
| 20260505234358 | 32 | 4 | 0.0 | 2.6 | 0.01 | 0.25 | 0.17 | 96 | 975.9 |
| 20260505233856 | 33 | 326 | 0.9 | 2.6 | 0.01 | 0.25 | 0.17 | 96 | 975.9 |
| 20260505233400 | 33 | 337 | 1.7 | 6.1 | 0.00 | 0.24 | 0.16 | 96 | 975.6 |
| 20260505233356 | 33 | 351 | 0.9 | 2.6 | 0.01 | 0.25 | 0.17 | 96 | 975.6 |
| 20260505232355 | 33 | 340 | 2.6 | 6.1 | 0.00 | 0.24 | 0.16 | 96 | 975.7 |
| 20260505231859 | 34 | 321 | 1.7 | 6.1 | 0.00 | 0.24 | 0.16 | 97 | 975.6 |
| 20260505231855 | 34 | 13 | 2.6 | 6.1 | 0.00 | 0.24 | 0.16 | 96 | 975.7 |
| 20260505231501 | 34 | 329 | 1.7 | 5.2 | 0.00 | 0.24 | 0.16 | 97 | 975.5 |
| 20260505230354 | 34 | 342 | 1.7 | 5.2 | 0.00 | 0.24 | 0.16 | 97 | 975.3 |
| 20260505225852 | 34 | 350 | 1.7 | 6.1 | 0.00 | 0.24 | 0.16 | 97 | 975.2 |
| 20260505225352 | 34 | 334 | 1.7 | 6.1 | 0.00 | 0.24 | 0.16 | 97 | 975.0 |
| 20260505224851 | 34 | 30 | 2.6 | 6.1 | 0.00 | 0.24 | 0.16 | 97 | 975.0 |
| 20260505224352 | 34 | 325 | 2.6 | 6.1 | 0.00 | 0.24 | 0.16 | 96 | 974.9 |
| 20260505223856 | 35 | 314 | 1.7 | 4.3 | 0.00 | 0.24 | 0.16 | 97 | 974.7 |
| 20260505223852 | 35 | 326 | 1.7 | 6.1 | 0.00 | 0.24 | 0.16 | 96 | 974.8 |
| 20260505222852 | 35 | 17 | 1.7 | 4.3 | 0.00 | 0.24 | 0.16 | 97 | 974.7 |
| 20260505222352 | 35 | 8 | 1.7 | 6.1 | 0.01 | 0.24 | 0.16 | 96 | 974.7 |
| 20260505221850 | 35 | 323 | 1.7 | 6.1 | 0.01 | 0.24 | 0.16 | 97 | 974.6 |
| 20260505221350 | 35 | 320 | 1.7 | 5.2 | 0.01 | 0.24 | 0.16 | 97 | 974.6 |
| 20260505220850 | 35 | 19 | 2.6 | 6.1 | 0.01 | 0.24 | 0.16 | 97 | 974.6 |
| 20260505220350 | 35 | 25 | 2.6 | 6.1 | 0.01 | 0.24 | 0.16 | 97 | 974.7 |
| 20260505215850 | 35 | 314 | 1.7 | 6.1 | 0.01 | 0.24 | 0.16 | 96 | 974.7 |
| 20260505215350 | 35 | 326 | 1.7 | 7.8 | 0.01 | 0.24 | 0.16 | 97 | 974.8 |
| 20260505214850 | 35 | 6 | 2.6 | 7.8 | 0.01 | 0.24 | 0.16 | 96 | 974.8 |
| 20260505214350 | 35 | 307 | 1.7 | 7.0 | 0.01 | 0.24 | 0.16 | 96 | 974.8 |
| 20260505213854 | 35 | 340 | 2.6 | 7.0 | 0.01 | 0.24 | 0.16 | 97 | 974.9 |
| 20260505213849 | 35 | 324 | 1.7 | 7.0 | 0.01 | 0.24 | 0.16 | 97 | 974.9 |
| 20260505212847 | 35 | 324 | 2.6 | 7.0 | 0.01 | 0.24 | 0.16 | 96 | 975.0 |
| 20260505212345 | 36 | 321 | 2.6 | 7.0 | 0.00 | 0.23 | 0.15 | 97 | 975.0 |
| 20260505211845 | 36 | 26 | 2.6 | 7.0 | 0.00 | 0.23 | 0.15 | 96 | 975.2 |
| 20260505211346 | 36 | 18 | 2.6 | 7.0 | 0.00 | 0.23 | 0.15 | 96 | 975.3 |
| 20260505211342 | 36 | 309 | 2.6 | 7.0 | 0.00 | 0.23 | 0.15 | 97 | 975.4 |
| 20260505210339 | 36 | 341 | 2.6 | 7.0 | 0.00 | 0.23 | 0.15 | 97 | 975.4 |
| 20260505205839 | 36 | 358 | 2.6 | 7.0 | 0.00 | 0.23 | 0.15 | 97 | 975.4 |
| 20260505205337 | 36 | 344 | 2.6 | 7.0 | 0.00 | 0.23 | 0.15 | 97 | 975.5 |
| 20260505204835 | 36 | 339 | 2.6 | 6.1 | 0.00 | 0.23 | 0.15 | 97 | 975.5 |
| 20260505204334 | 36 | 340 | 1.7 | 6.1 | 0.00 | 0.23 | 0.15 | 97 | 975.5 |
| 20260505203832 | 36 | 345 | 0.9 | 5.2 | 0.00 | 0.23 | 0.15 | 97 | 975.5 |
| 20260505203329 | 36 | 11 | 1.7 | 6.1 | 0.00 | 0.23 | 0.15 | 97 | 975.7 |
| 20260505202829 | 36 | 15 | 2.6 | 7.8 | 0.00 | 0.23 | 0.15 | 97 | 975.9 |
| 20260505202329 | 36 | 356 | 1.7 | 7.8 | 0.00 | 0.23 | 0.15 | 97 | 976.0 |
| 20260505201828 | 36 | 342 | 0.9 | 3.5 | 0.00 | 0.23 | 0.15 | 97 | 976.0 |
| 20260505201334 | 36 | 11 | 1.7 | 4.3 | 0.01 | 0.23 | 0.15 | 97 | 976.0 |
| 20260505200833 | 36 | 335 | 0.9 | 4.3 | 0.01 | 0.23 | 0.15 | 97 | 976.1 |
| 20260505200829 | 36 | 340 | 1.7 | 4.3 | 0.01 | 0.23 | 0.15 | 97 | 976.1 |
| 20260505195828 | 36 | 13 | 0.9 | 4.3 | 0.01 | 0.23 | 0.15 | 97 | 976.1 |
| 20260505195327 | 36 | 332 | 0.9 | 4.3 | 0.01 | 0.23 | 0.15 | 97 | 976.0 |
| 20260505194827 | 36 | 326 | 0.9 | 3.5 | 0.01 | 0.23 | 0.15 | 97 | 976.1 |
| 20260505194327 | 36 | 316 | 0.9 | 2.6 | 0.01 | 0.23 | 0.15 | 97 | 976.2 |
| 20260505193831 | 35 | 2 | 0.9 | 5.2 | 0.02 | 0.23 | 0.15 | 96 | 976.2 |
| 20260505193827 | 36 | 354 | 0.9 | 5.2 | 0.02 | 0.23 | 0.15 | 97 | 976.1 |
| 20260505192823 | 36 | 321 | 0.0 | 2.6 | 0.02 | 0.23 | 0.15 | 97 | 976.3 |
| 20260505192323 | 36 | 323 | 0.0 | 1.7 | 0.02 | 0.23 | 0.15 | 97 | 976.3 |
| 20260505191827 | 36 | 129 | 0.0 | 1.7 | 0.01 | 0.22 | 0.14 | 97 | 976.5 |
| 20260505191822 | 36 | 261 | 0.0 | 0.9 | 0.02 | 0.23 | 0.15 | 97 | 976.5 |
| 20260505190823 | 36 | 169 | 0.0 | 1.7 | 0.01 | 0.22 | 0.14 | 97 | 976.5 |
| 20260505190325 | 35 | 343 | 0.0 | 2.6 | 0.01 | 0.22 | 0.14 | 97 | 976.6 |
| 20260505185827 | 35 | 333 | 0.0 | 1.7 | 0.01 | 0.22 | 0.14 | 96 | 976.7 |
| 20260505185823 | 35 | 314 | 0.0 | 2.6 | 0.01 | 0.22 | 0.14 | 96 | 976.6 |
| 20260505184823 | 35 | 303 | 0.0 | 0.9 | 0.01 | 0.22 | 0.14 | 97 | 976.7 |
| 20260505184327 | 36 | 336 | 0.0 | 2.6 | 0.00 | 0.21 | 0.13 | 96 | 976.7 |
| 20260505184322 | 35 | 336 | 0.0 | 2.6 | 0.01 | 0.22 | 0.14 | 96 | 976.7 |
| 20260505183321 | 36 | 255 | 0.0 | 2.6 | 0.00 | 0.21 | 0.13 | 97 | 976.8 |
| 20260505182821 | 36 | 5 | 0.0 | 2.6 | 0.00 | 0.21 | 0.13 | 96 | 976.8 |
| 20260505182321 | 36 | 345 | 0.0 | 0.9 | 0.00 | 0.21 | 0.13 | 97 | 976.8 |
| 20260505181821 | 36 | 336 | 0.0 | 0.9 | 0.00 | 0.21 | 0.13 | 97 | 976.8 |
| 20260505181325 | 36 | 342 | 0.0 | 0.9 | 0.01 | 0.21 | 0.13 | 97 | 977.0 |
| 20260505181321 | 36 | 346 | 0.0 | 0.0 | 0.00 | 0.21 | 0.13 | 97 | 977.0 |
| 20260505180321 | 36 | 326 | 0.0 | 0.9 | 0.01 | 0.21 | 0.13 | 97 | 977.3 |
| 20260505175821 | 36 | 285 | 0.0 | 0.9 | 0.01 | 0.21 | 0.13 | 97 | 977.2 |
| 20260505175320 | 35 | 284 | 0.0 | 0.9 | 0.01 | 0.21 | 0.13 | 97 | 977.2 |
| 20260505174823 | 35 | 0 | 0.0 | 0.9 | 0.01 | 0.21 | 0.13 | 97 | 977.3 |
| 20260505174819 | 35 | 297 | 0.0 | 0.9 | 0.01 | 0.21 | 0.13 | 97 | 977.2 |
| 20260505173819 | 35 | 321 | 0.0 | 0.9 | 0.01 | 0.21 | 0.13 | 97 | 977.3 |
| 20260505173320 | 35 | 311 | 0.0 | 0.9 | 0.01 | 0.21 | 0.13 | 97 | 977.3 |
| 20260505172819 | 35 | 322 | 0.0 | 0.9 | 0.01 | 0.21 | 0.13 | 97 | 977.3 |
| 20260505172319 | 35 | 309 | 0.0 | 0.9 | 0.01 | 0.21 | 0.13 | 97 | 977.4 |
| 20260505171819 | 35 | 329 | 0.0 | 2.6 | 0.01 | 0.21 | 0.13 | 97 | 977.4 |
| 20260505171319 | 35 | 287 | 0.0 | 2.6 | 0.01 | 0.21 | 0.13 | 97 | 977.5 |
| 20260505170819 | 35 | 3 | 0.0 | 1.7 | 0.00 | 0.20 | 0.12 | 97 | 977.5 |
| 20260505170318 | 35 | 275 | 0.0 | 1.7 | 0.00 | 0.20 | 0.12 | 97 | 977.6 |
| 20260505165817 | 35 | 323 | 0.0 | 1.7 | 0.00 | 0.20 | 0.12 | 97 | 977.6 |
| 20260505165318 | 35 | 4 | 0.0 | 0.9 | 0.00 | 0.20 | 0.12 | 97 | 977.6 |
| 20260505164821 | 34 | 355 | 0.0 | 1.7 | 0.00 | 0.20 | 0.12 | 97 | 977.8 |
| 20260505164815 | 35 | 324 | 0.0 | 0.9 | 0.00 | 0.20 | 0.12 | 97 | 977.6 |
| 20260505164315 | 35 | 339 | 0.0 | 1.7 | 0.00 | 0.20 | 0.12 | 97 | 977.8 |
| 20260505163319 | 34 | 17 | 0.0 | 0.9 | 0.00 | 0.20 | 0.12 | 97 | 977.9 |
| 20260505163314 | 34 | 6 | 0.0 | 0.9 | 0.00 | 0.20 | 0.12 | 97 | 977.9 |
| 20260505162313 | 34 | 151 | 0.0 | 0.9 | 0.00 | 0.20 | 0.12 | 97 | 977.8 |
| 20260505161811 | 35 | 290 | 0.0 | 0.9 | 0.00 | 0.20 | 0.12 | 97 | 977.8 |
| 20260505161310 | 34 | 319 | 0.0 | 0.9 | 0.00 | 0.20 | 0.12 | 97 | 977.8 |
| 20260505160809 | 34 | 316 | 0.0 | 0.9 | 0.00 | 0.20 | 0.12 | 97 | 977.9 |
| 20260505160313 | 34 | 1 | 0.9 | 3.5 | 0.00 | 0.20 | 0.12 | 97 | 977.9 |
| 20260505160309 | 34 | 82 | 0.9 | 3.5 | 0.00 | 0.20 | 0.12 | 97 | 977.9 |
| 20260505152808 | 34 | 345 | 0.0 | 2.6 | 0.01 | 0.20 | 0.12 | 97 | 977.9 |
| 20260505152307 | 34 | 4 | 0.0 | 1.7 | 0.01 | 0.20 | 0.12 | 97 | 978.0 |
| 20260505151805 | 34 | 341 | 0.0 | 1.7 | 0.01 | 0.20 | 0.12 | 97 | 978.0 |
| 20260505151305 | 34 | 0 | 0.9 | 2.6 | 0.01 | 0.20 | 0.12 | 97 | 978.0 |
| 20260505150802 | 34 | 335 | 0.9 | 3.5 | 0.01 | 0.20 | 0.12 | 97 | 978.0 |
| 20260505150301 | 34 | 8 | 0.9 | 3.5 | 0.02 | 0.20 | 0.12 | 97 | 977.9 |
| 20260505140256 | 34 | 335 | 2.6 | 6.1 | 0.01 | 0.18 | 0.10 | 96 | 978.2 |
| 20260505130254 | 34 | 239 | 1.7 | 8.7 | 0.01 | 0.17 | 0.09 | 96 | 977.0 |
| 20260505130250 | 34 | 343 | 1.7 | 7.0 | 0.01 | 0.17 | 0.09 | 96 | 977.2 |
| 20260505124748 | 34 | 306 | 1.7 | 7.0 | 0.01 | 0.17 | 0.09 | 96 | 976.9 |
| 20260505124247 | 35 | 320 | 0.9 | 6.1 | 0.02 | 0.17 | 0.09 | 96 | 976.8 |
| 20260505123746 | 35 | 295 | 0.9 | 5.2 | 0.02 | 0.17 | 0.09 | 96 | 976.8 |
| 20260505123246 | 35 | 315 | 1.7 | 6.1 | 0.03 | 0.17 | 0.09 | 96 | 976.7 |
| 20260505122746 | 35 | 325 | 2.6 | 9.6 | 0.03 | 0.17 | 0.09 | 96 | 976.6 |
| 20260505122246 | 35 | 338 | 2.6 | 9.6 | 0.04 | 0.17 | 0.09 | 96 | 976.6 |
| 20260505121744 | 35 | 326 | 2.6 | 7.0 | 0.04 | 0.17 | 0.09 | 96 | 976.6 |
| 20260505121242 | 36 | 315 | 1.7 | 7.0 | 0.04 | 0.17 | 0.09 | 96 | 976.7 |
| 20260505120743 | 36 | 9 | 2.6 | 10.4 | 0.04 | 0.17 | 0.09 | 96 | 976.6 |
| 20260505120242 | 36 | 316 | 4.3 | 10.4 | 0.03 | 0.16 | 0.08 | 96 | 976.5 |
| 20260505115740 | 37 | 340 | 4.3 | 10.4 | 0.03 | 0.16 | 0.08 | 96 | 976.3 |
| 20260505115240 | 37 | 307 | 3.5 | 9.6 | 0.03 | 0.16 | 0.08 | 96 | 976.3 |
| 20260505114740 | 37 | 321 | 2.6 | 7.8 | 0.03 | 0.16 | 0.08 | 96 | 976.3 |
| 20260505114240 | 38 | 324 | 3.5 | 9.6 | 0.02 | 0.15 | 0.07 | 96 | 976.3 |
| 20260505113740 | 38 | 307 | 3.5 | 9.6 | 0.02 | 0.15 | 0.07 | 96 | 976.3 |
| 20260505113240 | 38 | 20 | 2.6 | 8.7 | 0.01 | 0.14 | 0.06 | 96 | 976.2 |
| 20260505112740 | 39 | 328 | 2.6 | 6.1 | 0.01 | 0.14 | 0.06 | 96 | 976.3 |
| 20260505112240 | 39 | 299 | 2.6 | 7.0 | 0.00 | 0.13 | 0.05 | 96 | 976.2 |
| 20260505111740 | 39 | 10 | 2.6 | 11.3 | 0.00 | 0.13 | 0.05 | 96 | 976.2 |
| 20260505110740 | 39 | 345 | 2.6 | 7.0 | 0.00 | 0.13 | 0.05 | 95 | 976.1 |
| 20260505110240 | 40 | 358 | 3.5 | 9.6 | 0.00 | 0.13 | 0.05 | 95 | 976.0 |
| 20260505101738 | 43 | 321 | 0.0 | 2.6 | 0.00 | 0.13 | 0.05 | 96 | 975.2 |
| 20260505101237 | 43 | 240 | 0.0 | 2.6 | 0.00 | 0.13 | 0.05 | 96 | 975.2 |
| 20260505100737 | 43 | 211 | 0.0 | 1.7 | 0.00 | 0.13 | 0.05 | 96 | 975.0 |
| 20260505100236 | 43 | 224 | 0.0 | 1.7 | 0.00 | 0.13 | 0.05 | 96 | 975.2 |
| 20260505095736 | 42 | 261 | 0.0 | 0.9 | 0.00 | 0.13 | 0.05 | 96 | 975.0 |
| 20260505095237 | 42 | 214 | 0.9 | 4.3 | 0.00 | 0.13 | 0.05 | 96 | 975.2 |
| 20260505094736 | 42 | 212 | 0.9 | 4.3 | 0.00 | 0.13 | 0.05 | 96 | 975.3 |
| 20260505094236 | 42 | 221 | 0.9 | 4.3 | 0.00 | 0.13 | 0.05 | 96 | 975.2 |
| 20260505093736 | 42 | 337 | 0.9 | 3.5 | 0.00 | 0.13 | 0.05 | 96 | 974.4 |
| 20260505093236 | 42 | 333 | 0.0 | 3.5 | 0.00 | 0.13 | 0.05 | 96 | 974.2 |
| 20260505092736 | 42 | 332 | 0.0 | 0.9 | 0.00 | 0.13 | 0.05 | 96 | 974.7 |
| 20260505092236 | 42 | 340 | 0.0 | 0.9 | 0.00 | 0.13 | 0.05 | 96 | 975.0 |
| 20260505091734 | 42 | 340 | 0.0 | 0.0 | 0.00 | 0.13 | 0.05 | 96 | 975.2 |
| 20260505091234 | 42 | 342 | 0.0 | 0.9 | 0.00 | 0.13 | 0.05 | 96 | 975.0 |
| 20260505090733 | 42 | 343 | 0.0 | 0.9 | 0.00 | 0.13 | 0.05 | 96 | 975.2 |
| 20260505090234 | 42 | 172 | 0.0 | 0.0 | 0.00 | 0.13 | 0.05 | 96 | 975.0 |
| 20260505085734 | 42 | 172 | 0.0 | 0.0 | 0.00 | 0.13 | 0.05 | 96 | 975.0 |
| 20260505085235 | 42 | 172 | 0.0 | 0.0 | 0.00 | 0.13 | 0.05 | 96 | 974.9 |
| 20260505084735 | 42 | 172 | 0.0 | 0.0 | 0.00 | 0.13 | 0.05 | 96 | 974.8 |
| 20260505084234 | 42 | 206 | 0.0 | 0.0 | 0.00 | 0.13 | 0.05 | 96 | 974.9 |
| 20260505083734 | 43 | 203 | 0.0 | 0.0 | 0.01 | 0.13 | 0.05 | 96 | 975.0 |
| 20260505083234 | 43 | 203 | 0.0 | 0.0 | 0.01 | 0.13 | 0.05 | 96 | 975.0 |
| 20260505082732 | 43 | 204 | 0.0 | 0.0 | 0.01 | 0.13 | 0.05 | 96 | 975.0 |
| 20260505082232 | 43 | 204 | 0.0 | 0.0 | 0.01 | 0.13 | 0.05 | 96 | 975.3 |
| 20260505081732 | 43 | 204 | 0.0 | 2.6 | 0.01 | 0.13 | 0.05 | 96 | 975.4 |
| 20260505081233 | 43 | 204 | 0.9 | 3.5 | 0.01 | 0.13 | 0.05 | 96 | 975.5 |
| 20260505080732 | 43 | 212 | 1.7 | 5.2 | 0.01 | 0.13 | 0.05 | 96 | 975.4 |
| 20260505080229 | 43 | 200 | 2.6 | 5.2 | 0.02 | 0.13 | 0.05 | 96 | 975.5 |
| 20260505075730 | 43 | 181 | 2.6 | 6.1 | 0.03 | 0.13 | 0.05 | 96 | 975.5 |
| 20260505075234 | 42 | 161 | 2.6 | 7.0 | 0.04 | 0.13 | 0.05 | 96 | 975.5 |
| 20260505075230 | 42 | 162 | 3.5 | 7.0 | 0.03 | 0.13 | 0.05 | 96 | 975.5 |
| 20260505074229 | 42 | 176 | 1.7 | 6.1 | 0.04 | 0.13 | 0.05 | 96 | 975.6 |
| 20260505073730 | 43 | 172 | 0.9 | 4.3 | 0.03 | 0.12 | 0.04 | 96 | 975.9 |
| 20260505073230 | 43 | 110 | 1.7 | 3.5 | 0.04 | 0.12 | 0.04 | 96 | 976.1 |
| 20260505072729 | 43 | 195 | 1.7 | 4.3 | 0.04 | 0.12 | 0.04 | 96 | 976.2 |
| 20260505072229 | 43 | 158 | 1.7 | 4.3 | 0.04 | 0.12 | 0.04 | 96 | 976.2 |
| 20260505071730 | 43 | 150 | 0.9 | 4.3 | 0.04 | 0.12 | 0.04 | 96 | 976.3 |
| 20260505071229 | 43 | 174 | 0.0 | 1.7 | 0.04 | 0.12 | 0.04 | 96 | 976.2 |
| 20260505070735 | 43 | 186 | 0.0 | 1.7 | 0.02 | 0.10 | 0.02 | 96 | 976.8 |
| 20260505070730 | 43 | 136 | 0.9 | 3.5 | 0.04 | 0.12 | 0.04 | 96 | 976.3 |
| 20260505070230 | 43 | 196 | 0.9 | 3.5 | 0.03 | 0.11 | 0.03 | 96 | 976.6 |
| 20260505065230 | 43 | 181 | 0.0 | 1.7 | 0.02 | 0.10 | 0.02 | 96 | 976.8 |
| 20260505064729 | 43 | 200 | 0.0 | 0.9 | 0.01 | 0.09 | 0.02 | 96 | 976.8 |
| 20260505064228 | 44 | 168 | 0.0 | 0.9 | 0.01 | 0.09 | 0.01 | 96 | 976.8 |
| 20260505063730 | 44 | 153 | 0.0 | 0.9 | 0.00 | 0.08 | 0.00 | 96 | 976.8 |
| 20260505063726 | 44 | 158 | 0.0 | 0.9 | 0.01 | 0.09 | 0.01 | 96 | 976.8 |
| 20260505062729 | 44 | 160 | 0.0 | 0.0 | 0.01 | 0.08 | 0.00 | 96 | 976.8 |
| 20260505062725 | 44 | 157 | 0.0 | 0.9 | 0.00 | 0.08 | 0.00 | 96 | 976.7 |
| 20260505061725 | 44 | 160 | 0.0 | 0.0 | 0.01 | 0.08 | 0.00 | 96 | 976.8 |
| 20260505061225 | 44 | 180 | 0.0 | 0.0 | 0.02 | 0.08 | 0.00 | 95 | 976.8 |
| 20260505060725 | 44 | 183 | 0.0 | 0.0 | 0.02 | 0.08 | 0.00 | 96 | 976.8 |
| 20260505060225 | 44 | 183 | 0.0 | 1.7 | 0.02 | 0.08 | 0.00 | 95 | 976.6 |
| 20260505055725 | 44 | 195 | 0.0 | 1.7 | 0.03 | 0.08 | 0.08 | 95 | 976.7 |
| 20260505055224 | 44 | 150 | 0.0 | 0.9 | 0.03 | 0.08 | 0.08 | 95 | 976.7 |
| 20260505054729 | 43 | 342 | 0.0 | 0.0 | 0.04 | 0.08 | 0.08 | 95 | 976.7 |
| 20260505054724 | 44 | 137 | 0.0 | 0.9 | 0.04 | 0.08 | 0.08 | 95 | 976.8 |
| 20260505053724 | 44 | 342 | 0.0 | 0.0 | 0.04 | 0.08 | 0.08 | 95 | 976.5 |
| 20260505053224 | 44 | 342 | 0.0 | 1.7 | 0.04 | 0.08 | 0.08 | 95 | 976.6 |
| 20260505052725 | 44 | 342 | 0.9 | 4.3 | 0.04 | 0.08 | 0.08 | 95 | 976.8 |
| 20260505052224 | 44 | 11 | 0.9 | 4.3 | 0.03 | 0.07 | 0.07 | 95 | 976.9 |
| 20260505051725 | 44 | 338 | 0.9 | 4.3 | 0.03 | 0.07 | 0.07 | 95 | 976.9 |
| 20260505051224 | 44 | 325 | 0.9 | 2.6 | 0.02 | 0.06 | 0.06 | 95 | 977.0 |
| 20260505050728 | 44 | 319 | 1.7 | 4.3 | 0.03 | 0.06 | 0.06 | 94 | 977.0 |
| 20260505050724 | 44 | 358 | 0.9 | 3.5 | 0.02 | 0.06 | 0.06 | 95 | 977.3 |
| 20260505041724 | 45 | 10 | 0.0 | 1.7 | 0.04 | 0.04 | 0.04 | 94 | 976.9 |
| 20260505041222 | 45 | 326 | 0.0 | 1.7 | 0.04 | 0.04 | 0.04 | 93 | 976.7 |
| 20260505040722 | 45 | 338 | 0.0 | 0.9 | 0.04 | 0.04 | 0.04 | 93 | 976.8 |
| 20260505040222 | 45 | 186 | 0.0 | 1.7 | 0.03 | 0.03 | 0.03 | 93 | 976.6 |
| 20260505035723 | 45 | 186 | 0.9 | 3.5 | 0.03 | 0.03 | 0.03 | 93 | 976.5 |
| 20260505035226 | 45 | 229 | 1.7 | 7.0 | 0.02 | 0.02 | 0.02 | 92 | 976.6 |
| 20260505035222 | 45 | 217 | 1.7 | 6.1 | 0.02 | 0.02 | 0.02 | 92 | 976.5 |
| 20260505034222 | 45 | 227 | 1.7 | 7.0 | 0.01 | 0.01 | 0.01 | 91 | 976.6 |
| 20260505033722 | 46 | 210 | 1.7 | 4.3 | 0.01 | 0.01 | 0.01 | 90 | 976.7 |
| 20260505033222 | 46 | 217 | 0.9 | 3.5 | 0.01 | 0.01 | 0.01 | 89 | 976.6 |
| 20260505032720 | 47 | 176 | 0.0 | 2.6 | 0.01 | 0.01 | 0.01 | 83 | 976.5 |
| 20260505032220 | 48 | 226 | 0.0 | 1.7 | 0.01 | 0.01 | 0.01 | 78 | 976.3 |
| 20260505031720 | 48 | 266 | 0.9 | 4.3 | 0.00 | 0.00 | 0.00 | 77 | 976.5 |
| 20260505031219 | 48 | 221 | 0.9 | 4.3 | 0.00 | 0.00 | 0.00 | 75 | 976.3 |
| 20260505030718 | 48 | 219 | 0.0 | 3.5 | 0.00 | 0.00 | 0.00 | 75 | 976.3 |
| 20260505030218 | 48 | 233 | 0.0 | 2.6 | 0.00 | 0.00 | 0.00 | 75 | 976.2 |
| 20260505025720 | 49 | 203 | 0.0 | 1.7 | 0.00 | 0.00 | 0.00 | 74 | 976.2 |
| 20260505025716 | 49 | 309 | 0.0 | 1.7 | 0.00 | 0.00 | 0.00 | 71 | 976.2 |
| 20260505024716 | 49 | 239 | 0.0 | 0.9 | 0.00 | 0.00 | 0.00 | 71 | 976.0 |